Time,TemperatureF,DewpointF,PressureIn,WindDirection,WindDirectionDegrees,WindSpeedMPH,WindSpeedGustMPH,Humidity,HourlyPrecipIn,Conditions,Clouds,dailyrainin,SoftwareType,DateUTC
2013-02-09 00:01:00,36.0,25.0,-100.00,North,5,2.0,7.0,63,-99.99,,,-99.99,,2013-02-09 08:01:00,
2013-02-09 00:11:00,36.0,25.0,-100.00,North,5,2.0,7.0,63,-99.99,,,-99.99,,2013-02-09 08:11:00,
2013-02-09 01:02:00,35.0,25.0,-100.00,South,175,2.0,6.0,66,-99.99,,,-99.99,,2013-02-09 09:02:00,
2013-02-09 01:10:00,35.0,25.0,-100.00,South,175,6.0,10.0,66,-99.99,,,-99.99,,2013-02-09 09:10:00,
2013-02-09 01:11:00,35.0,25.0,-100.00,South,175,2.0,6.0,66,-99.99,,,-99.99,,2013-02-09 09:11:00,
2013-02-09 02:01:00,35.0,25.0,-100.00,South,175,6.0,10.0,66,-99.99,,,-99.99,,2013-02-09 10:01:00,
2013-02-09 03:01:00,34.0,25.0,-100.00,North,5,6.0,10.0,69,-99.99,,,-99.99,,2013-02-09 11:01:00,
2013-02-09 03:11:00,34.0,25.0,-100.00,North,5,6.0,10.0,69,-99.99,,,-99.99,,2013-02-09 11:11:00,
2013-02-09 04:02:00,34.0,25.0,-100.00,South,175,1.0,6.0,69,-99.99,,,-99.99,,2013-02-09 12:02:00,
2013-02-09 05:02:00,33.0,25.0,-100.00,SE,130,2.0,6.0,72,-99.99,,,-99.99,,2013-02-09 13:02:00,
2013-02-09 05:10:00,34.0,24.0,-100.00,South,175,2.0,8.0,66,-99.99,,,-99.99,,2013-02-09 13:10:00,
2013-02-09 05:11:00,33.0,25.0,-100.00,SE,130,2.0,6.0,72,-99.99,,,-99.99,,2013-02-09 13:11:00,
2013-02-09 06:01:00,34.0,24.0,-100.00,South,175,2.0,8.0,66,-99.99,,,-99.99,,2013-02-09 14:01:00,
2013-02-09 07:01:00,34.0,24.0,-100.00,South,175,5.0,9.0,66,-99.99,,,-99.99,,2013-02-09 15:01:00,
2013-02-09 07:11:00,34.0,24.0,-100.00,South,175,5.0,9.0,66,-99.99,,,-99.99,,2013-02-09 15:11:00,
2013-02-09 08:01:00,35.0,25.0,-100.00,South,170,1.0,8.0,66,-99.99,,,-99.99,,2013-02-09 16:01:00,
2013-02-09 08:10:00,35.0,25.0,-100.00,SSE,160,3.0,6.0,66,-99.99,,,-99.99,,2013-02-09 16:10:00,
2013-02-09 09:01:00,35.0,25.0,-100.00,SSE,160,3.0,6.0,66,-99.99,,,-99.99,,2013-02-09 17:01:00,
2013-02-09 10:01:00,36.0,25.0,-100.00,North,5,2.0,10.0,63,-99.99,,,-99.99,,2013-02-09 18:01:00,
2013-02-09 10:10:00,43.0,27.0,-100.00,South,170,5.0,13.0,52,-99.99,,,-99.99,,2013-02-09 18:10:00,
2013-02-09 11:00:00,48.0,28.0,-100.00,North,10,5.0,13.0,45,-99.99,,,-99.99,,2013-02-09 19:00:00,
2013-02-09 11:01:00,43.0,27.0,-100.00,South,170,5.0,13.0,52,-99.99,,,-99.99,,2013-02-09 19:01:00,
2013-02-09 12:10:00,51.0,30.0,-100.00,NNE,20,3.0,13.0,44,-99.99,,,-99.99,,2013-02-09 20:10:00,
2013-02-09 13:01:00,51.0,30.0,-100.00,NNE,20,3.0,13.0,44,-99.99,,,-99.99,,2013-02-09 21:01:00,
2013-02-09 13:20:00,51.0,29.0,-100.00,ESE,120,7.0,12.0,42,-99.99,,,-99.99,,2013-02-09 21:20:00,
2013-02-09 14:01:00,51.0,29.0,-100.00,ESE,120,7.0,12.0,42,-99.99,,,-99.99,,2013-02-09 22:01:00,
2013-02-09 14:10:00,49.0,29.0,-100.00,SE,125,5.0,12.0,45,-99.99,,,-99.99,,2013-02-09 22:10:00,
2013-02-09 14:11:00,51.0,29.0,-100.00,ESE,120,7.0,12.0,42,-99.99,,,-99.99,,2013-02-09 22:11:00,
2013-02-09 15:01:00,49.0,29.0,-100.00,SE,125,5.0,12.0,45,-99.99,,,-99.99,,2013-02-09 23:01:00,
2013-02-09 16:02:00,50.0,29.0,-100.00,ESE,115,5.0,10.0,44,-99.99,,,-99.99,,2013-02-10 00:02:00,
2013-02-09 16:10:00,48.0,29.0,-100.00,East,100,2.0,9.0,47,-99.99,,,-99.99,,2013-02-10 00:10:00,
2013-02-09 16:11:00,50.0,29.0,-100.00,ESE,115,5.0,10.0,44,-99.99,,,-99.99,,2013-02-10 00:11:00,
2013-02-09 17:01:00,48.0,29.0,-100.00,East,100,2.0,9.0,47,-99.99,,,-99.99,,2013-02-10 01:01:00,
2013-02-09 18:01:00,46.0,28.0,-100.00,South,170,2.0,6.0,49,-99.99,,,-99.99,,2013-02-10 02:01:00,
2013-02-09 18:11:00,46.0,28.0,-100.00,South,170,2.0,6.0,49,-99.99,,,-99.99,,2013-02-10 02:11:00,
2013-02-09 19:01:00,42.0,29.0,-100.00,North,10,1.0,3.0,59,-99.99,,,-99.99,,2013-02-10 03:01:00,
2013-02-09 20:01:00,39.0,29.0,-100.00,SE,130,1.0,3.0,67,-99.99,,,-99.99,,2013-02-10 04:01:00,
2013-02-09 20:11:00,39.0,29.0,-100.00,SE,130,1.0,3.0,67,-99.99,,,-99.99,,2013-02-10 04:11:00,
2013-02-09 21:01:00,40.0,29.0,-100.00,North,10,3.0,13.0,64,-99.99,,,-99.99,,2013-02-10 05:01:00,
2013-02-09 22:01:00,38.0,28.0,-100.00,South,175,5.0,9.0,66,-99.99,,,-99.99,,2013-02-10 06:01:00,
2013-02-09 22:11:00,38.0,28.0,-100.00,South,175,5.0,9.0,66,-99.99,,,-99.99,,2013-02-10 06:11:00,
2013-02-09 23:01:00,37.0,28.0,-100.00,SSE,155,2.0,9.0,69,-99.99,,,-99.99,,2013-02-10 07:01:00,